Powrót do katalogu

COSMOS 2251 DEB

AktywnyLEO
NORAD 34998·DEBRIS·🇷🇺 Russia

Wystrzelony Jun 16, 1993 z Plesetsk Cosmodrome

Loading…

Następne Przeloty (najbliższe 24 godziny)

TLE

ŚwieżeSource: Space-Track

Epoka: Sep 13, 2026, 06:46 UTC

1 34998U 93036AFW 26256.28257810  .00001110  00000-0  29155-3 0  9996
2 34998  74.0120   3.7587 0019550  81.7811 307.6895 14.50238394913993

Śledź COSMOS 2251 DEB w czasie rzeczywistym z AllMySat

Download on the App Store